| DS18B20 | SHTC3 | ||||||
|---|---|---|---|---|---|---|---|
| ID | Date d/m/Y & Time | data1 สูง | data2 ต่ำ | data3 นอก | temp pcb | hum pcb | Time |
| 10438 | 10/04/2026 04:05:31 | 26.8  | 26.9  | 25.3  | 26.6  | 70.5  | 04:05 |
| 10437 | 10/04/2026 04:00:51 | 26.8  | 26.9  | 25.4  | 26.8  | 70.7  | 04:00 |
| 10436 | 10/04/2026 03:56:07 | 26.8  | 26.9  | 25.2  | 26.8  | 70.7  | 03:56 |
| 10435 | 10/04/2026 03:51:25 | 26.8  | 26.9  | 25.4  | 26.7  | 70.6  | 03:51 |
| 10434 | 10/04/2026 03:46:43 | 26.8  | 26.9  | 25.2  | 26.7  | 70.7  | 03:46 |
| 10433 | 10/04/2026 03:41:59 | 26.8  | 26.9  | 25.3  | 26.8  | 70.6  | 03:41 |
| 10432 | 10/04/2026 03:37:18 | 26.9  | 26.9  | 25.1  | 26.9  | 70.8  | 03:37 |
| 10431 | 10/04/2026 03:32:35 | 26.9  | 26.9  | 25.3  | 26.9  | 70.7  | 03:32 |
| 10430 | 10/04/2026 03:27:54 | 26.9  | 27.0  | 25.4  | 26.7  | 70.6  | 03:27 |
| 10429 | 10/04/2026 03:23:12 | 26.9  | 27.0  | 25.4  | 26.8  | 70.7  | 03:23 |
| 10428 | 10/04/2026 03:18:31 | 26.9  | 27.0  | 25.4  | 26.8  | 70.6  | 03:18 |
| 10427 | 10/04/2026 03:13:49 | 26.9  | 27.0  | 25.5  | 26.9  | 70.7  | 03:13 |
| 10426 | 10/04/2026 03:09:08 | 26.9  | 27.1  | 25.5  | 26.9  | 70.7  | 03:09 |
| 10425 | 10/04/2026 03:04:26 | 26.9  | 27.1  | 25.4  | 27.1  | 70.8  | 03:04 |
| 10424 | 10/04/2026 02:59:44 | 26.9  | 27.1  | 25.2  | 26.8  | 70.7  | 02:59 |
| 10423 | 10/04/2026 02:55:03 | 27.0  | 27.1  | 25.4  | 26.9  | 70.7  | 02:55 |
| 10422 | 10/04/2026 02:50:21 | 27.0  | 27.1  | 25.4  | 27.1  | 70.8  | 02:50 |
| 10421 | 10/04/2026 02:45:37 | 27.0  | 27.1  | 25.2  | 27.0  | 70.9  | 02:45 |
| 10420 | 10/04/2026 02:40:55 | 27.0  | 27.1  | 25.2  | 27.1  | 70.6  | 02:40 |
| 10419 | 10/04/2026 02:36:14 | 27.1  | 27.1  | 25.2  | 27.0  | 70.7  | 02:36 |
| 10418 | 10/04/2026 02:31:32 | 27.1  | 27.2  | 25.1  | 27.0  | 70.7  | 02:31 |
| 10417 | 10/04/2026 02:26:50 | 27.1  | 27.2  | 25.2  | 27.0  | 70.7  | 02:26 |
| 10416 | 10/04/2026 02:22:07 | 27.1  | 27.2  | 25.2  | 26.9  | 70.6  | 02:22 |
| 10415 | 10/04/2026 02:17:26 | 27.1  | 27.2  | 25.3  | 27.1  | 70.8  | 02:17 |